Torna al catalogo

STARLINK-33991

AttivoComunicazioniVLEO
NORAD 64122·PAYLOAD·🇺🇸 United States

Lanciato May 23, 2025 da Vandenberg Space Force Base

Loading…

Prossimi Passaggi (prossime 24 ore)

TLE

AggiornatoSource: CelesTrak SupGP

Epoca: Sep 15, 2026, 03:02 UTC

1 64122C 25110AC  26258.12687500 -.00049038  00000+0 -15769-2 0  2589
2 64122  53.1575 225.0969 0001464  94.1218 163.2312 15.31726305    18

Traccia STARLINK-33991 in tempo reale con AllMySat

Download on the App Store